Flag for Austria Weather past 2 weeks in Bad Radkersburg, Styria, Austria

Now
54 °F

Cool.


Feels Like: 54 °F
Forecast: 58 / 75 °F
Wind: 2 mph from Southeast

Location: Murska Sobota

Current Time: May 30, 2015 at 3:11:56 AM

Latest Report: May 30, 2015 at 2:00 AM


Visibility: N/A

Pressure: 29.90 "Hg

Humidity: 83%

Dew point: 49 °F

Location of Bad RadkersburgLocation

Historic Weather in Bad Radkersburg — Graph

°F

Bad Radkersburg temperature yesterday

Maximum temperature yesterday: 75 °F (at 4:00 PM)
Minimum temperature yesterday: 43 °F (at 4:00 AM)
Average temperature yesterday: 60 °F

Past Weeks' High & Low Weather Summary

 TemperatureHumidityPressure
High82 °F (May 19, 4:00 PM)99% (May 17, 5:00 AM)30.22 "Hg (May 17, 5:00 AM)
Low43 °F (May 29, 4:00 AM)40% (May 19, 4:00 PM)29.69 "Hg (May 19, 5:00 PM)
Average58 °F79%29.98 "Hg
* Reported May 15 1:00 AM — May 30 1:00 AM, Bad Radkersburg, Weather by CustomWeather, © 2015

Note: Actual official high and low records may vary slightly from our data, if they occured in-between our weather recording intervals... More about our weather records

Advertising

Bad Radkersburg weather history for previous 24 hours

 ConditionsComfort  
Time TempWeatherWind HumidityBarometerVisibility
1:00 AM
Sat, May 30
53 °FCool.1 mph87%29.91 "HgN/A
12:00 AM56 °FCool.1 mph81%29.91 "HgN/A
11:00 PM
Fri, May 29
60 °FCool.2 mph72%29.91 "HgN/A
10:00 PM61 °FCool.2 mph69%29.91 "HgN/A
9:00 PM65 °FMild.1 mph60%29.90 "HgN/A
8:00 PM69 °FScattered clouds.2 mph51%29.89 "Hg12 mi
7:00 PM73 °FMild.3 mph45%29.88 "HgN/A
6:00 PM74 °FMild.2 mph42%29.89 "HgN/A
5:00 PM75 °FMild.3 mph40%29.91 "HgN/A
4:00 PM75 °FMild.3 mph40%29.92 "HgN/A
3:00 PM74 °FPassing clouds.3 mph44%29.95 "Hg6 mi
2:00 PM72 °FPassing clouds.2 mph44%29.97 "Hg6 mi
1:00 PM71 °FMild.3 mph52%29.98 "HgN/A
12:00 PM68 °FMild.2 mph55%30.00 "HgN/A
11:00 AM66 °FMild.2 mph60%30.01 "HgN/A
10:00 AM63 °FMild.1 mph66%30.02 "HgN/A
9:00 AM58 °FCool.1 mph75%30.03 "HgN/A
8:00 AM53 °FPassing clouds.2 mph85%30.04 "Hg6 mi
7:00 AM47 °FPassing clouds.1 mph93%30.05 "Hg6 mi
6:00 AM43 °FQuite cool.1 mph97%30.05 "HgN/A
5:00 AM43 °FQuite cool.No wind97%30.04 "HgN/A
4:00 AM43 °FQuite cool.1 mph96%30.04 "HgN/A
3:00 AM44 °FQuite cool.1 mph95%30.04 "HgN/A
Weather by CustomWeather, © 2015

See weather overviewHow to use our weather pages